This demonstration page uses our WeatherBlox Daily Observations layout. Learn more.

36.19886, -115.1175

Hourly Observations for July 16, 2019

Temp ( °F °C ) Dew Point ( °F °C ) Humidity (%) Winds ( mph kmh ) Pressure ( in mb ) Visibility ( mi km ) Precip ( " mm )
12:53 am 00:53 Clear 89 31.7 24 -4.4 9 9 Calm 29.74 1007 10 16.09344 0 0
1:53 am 01:53 Clear 85 29.4 25 -3.9 11 11 Calm 29.74 1007 10 16.09344 0 0
2:53 am 02:53 Clear 85 29.4 23 -5 10 10 NE 5 7 29.71 1006 10 16.09344 0 0
3:53 am 03:53 Clear 81 27.2 29 -1.7 15 15 WNW 6 9 29.71 1006 10 16.09344 0 0
4:53 am 04:53 Clear 78 25.6 32 0 19 19 N 5 7 29.74 1007 10 16.09344 0 0
5:53 am 05:53 Sunny 77 25 32 0 19 19 Calm 29.74 1007 10 16.09344 0 0
6:53 am 06:53 Sunny 80 26.7 27 -2.8 14 14 NNW 6 9 29.77 1008 10 16.09344 0 0
7:53 am 07:53 Sunny 84 28.9 27 -2.8 12 12 Calm 29.77 1008 10 16.09344 0 0
8:53 am 08:53 Sunny 89 31.7 27 -2.8 11 11 N 3 6 29.77 1008 10 16.09344 0 0
9:53 am 09:53 Sunny 94 34.4 26 -3.3 9 9 SSE 7 11 29.77 1008 10 16.09344 0 0
10:53 am 10:53 Sunny 101 38.3 22 -5.6 6 6 SSW 17 28 29.74 1007 10 16.09344 0 0
11:53 am 11:53 Sunny 104 40 18 -7.8 4 4 SSW 17 28 29.74 1007 10 16.09344 0 0
12:45 pm 12:45 Mostly Sunny 104 40 19 -7.2 5 5 S 18 30 29.53 1000 10 16.09344 0 0
12:53 pm 12:53 Sunny 104 40 19 -7.2 5 5 SSW 15 24 29.71 1006 10 16.09344 0 0
1:53 pm 13:53 Sunny 106 41.1 17 -8.3 4 4 SW 16 26 29.68 1005 10 16.09344 0 0
2:53 pm 14:53 Sunny 107 41.7 19 -7.2 4 4 SW 21 33 29.68 1005 10 16.09344 0 0
3:53 pm 15:53 Sunny 107 41.7 16 -8.9 4 4 WSW 18 30 29.68 1005 10 16.09344 0 0
4:53 pm 16:53 Sunny 105 40.6 22 -5.6 5 5 W 15 24 29.65 1004 10 16.09344 0 0
5:53 pm 17:53 Sunny 105 40.6 21 -6.1 5 5 SW 17 28 29.65 1004 10 16.09344 0 0
6:53 pm 18:53 Sunny 103 39.4 23 -5 6 6 WSW 14 22 29.65 1004 10 16.09344 0 0
7:53 pm 19:53 Sunny 100 37.8 24 -4.4 7 7 SW 18 30 29.65 1004 10 16.09344 0 0
8:53 pm 20:53 Clear 98 36.7 25 -3.9 7 7 SW 10 17 29.65 1004 10 16.09344 0 0
9:53 pm 21:53 Clear 96 35.6 27 -2.8 8 8 WSW 6 9 29.68 1005 10 16.09344 0 0
10:53 pm 22:53 Clear 94 34.4 28 -2.2 9 9 WSW 10 17 29.68 1005 10 16.09344 0 0
11:53 pm 23:53 Clear 90 32.2 30 -1.1 12 12 S 7 11 29.71 1006 10 16.09344 0 0

Powered by AerisWeather